Location: Unspecified
(0.0000°N, 0.0000°E)
Time: 23:18:50
(UTC+00:00)

XW-2F - Pass Details

Date: 15 December 2017
Orbit: 507 x 528 km, 97.5° (Epoch: 16 January)

Event Time Altitude Azimuth Distance (km) Brightness Sun altitude
Rises 04:50:45 0° 48° (NE) 2,642 ? -14.7°
Reaches altitude 10° 04:54:20 10° 84° (E) 1,753 ? -13.9°
Maximum altitude 04:55:26 11° 101° (ESE) 1,684 ? -13.7°
Drops below altitude 10° 04:56:33 10° 119° (ESE) 1,752 ? -13.4°
Sets 05:00:06 0° 155° (SSE) 2,638 ? -12.6°
